Weather History for Hot Springs, VA

Change the Weather History Date:

Sunday, September 8, 2013

  Actual Average Record
Temperature  
Mean Temperature 65 °F -  
Max Temperature 73 °F 69 °F 82 °F (2007)
Min Temperature 57 °F 55 °F 51 °F (1998)
Growing Degree Days 15 (Base 50)    
Moisture  
Dew Point 58 °F    
Average Humidity 77    
Maximum Humidity 88    
Minimum Humidity 61    
Precipitation  
Precipitation 0.00 in - - ()
Sea Level Pressure  
Sea Level Pressure 30.15 in    
Wind  
Wind Speed 10 mph (NW)    
Max Wind Speed 15 mph    
Max Gust Speed 16 mph    
Visibility 10 miles    
Events Rain    
Averages and records for this station are not official NWS values.
T = Trace of Precipitation, MM = Missing Value Source: NWS Daily Summary

Daily Weather History Graph

Daily Weather History Graph

Search for Another Location

Airport:

Trip Planner

Search our weather history database for the weather conditions in past years. The results will help you decide how hot, cold, wet, or windy it might be!

Date:

Astronomy

Sep. 08, 2013 Rise Set
Actual Time 6:55 AM EDT 7:37 PM EDT
Civil Twilight 6:28 AM EDT 8:04 PM EDT
Nautical Twilight 5:57 AM EDT 8:35 PM EDT
Astronomical Twilight 5:24 AM EDT 9:07 PM EDT
Moon 10:06 AM EDT (9/8) 9:16 PM EDT (9/8)
Length of Visible Light 13h 35m
Length of Day
12h 42m
Waxing Crescent, 11% of the Moon is Illuminated
Sep 8
Waxing Crescent
Sep 12
First Quarter
Sep 19
Full
Sep 26
Last Quarter
Oct 4
New

Hourly Weather History & Observations

Time (EDT) Temp. Dew Point Humidity Pressure Visibility Wind Dir Wind Speed Gust Speed Precip Events Conditions
12:15 AM 60.8 °F 51.8 °F 72% 30.14 in 10.0 mi WNW 15.0 mph - N/A   Clear
12:35 AM 60.8 °F 51.8 °F 72% 30.14 in 10.0 mi West 11.5 mph - N/A   Clear
12:55 AM 60.8 °F 51.8 °F 72% 30.14 in 10.0 mi West 11.5 mph - N/A   Clear
1:15 AM 60.8 °F 51.8 °F 72% 30.14 in 10.0 mi WNW 15.0 mph - N/A   Clear
1:35 AM 59.0 °F 51.8 °F 77% 30.14 in 10.0 mi WNW 12.7 mph - N/A   Clear
1:55 AM 59.0 °F 51.8 °F 77% 30.14 in 10.0 mi WNW 13.8 mph - N/A   Clear
2:15 AM 59.0 °F 51.8 °F 77% 30.14 in 10.0 mi WNW 11.5 mph - N/A   Clear
2:35 AM 57.2 °F 51.8 °F 82% 30.14 in 10.0 mi WNW 11.5 mph - N/A   Scattered Clouds
2:55 AM 57.2 °F 51.8 °F 82% 30.13 in 10.0 mi NW 10.4 mph - N/A   Mostly Cloudy
3:15 AM 59.0 °F 51.8 °F 77% 30.13 in 10.0 mi WNW 9.2 mph - N/A   Mostly Cloudy
3:35 AM 57.2 °F 51.8 °F 82% 30.13 in 10.0 mi NW 10.4 mph - N/A   Scattered Clouds
3:55 AM 59.0 °F 51.8 °F 77% 30.13 in 10.0 mi NW 11.5 mph - N/A   Clear
4:15 AM 60.8 °F 51.8 °F 72% 30.13 in 10.0 mi NW 10.4 mph - N/A   Scattered Clouds
4:35 AM 60.8 °F 51.8 °F 72% 30.13 in 10.0 mi WNW 8.1 mph - N/A   Mostly Cloudy
4:55 AM 60.8 °F 53.6 °F 77% 30.12 in 10.0 mi NW 9.2 mph - N/A   Scattered Clouds
5:15 AM 60.8 °F 53.6 °F 77% 30.12 in 10.0 mi WNW 8.1 mph - N/A   Mostly Cloudy
5:35 AM 60.8 °F 53.6 °F 77% 30.12 in 10.0 mi WNW 11.5 mph - N/A Rain Rain
5:55 AM 59.0 °F 53.6 °F 82% 30.12 in 10.0 mi WNW 9.2 mph - N/A   Mostly Cloudy
6:15 AM 60.8 °F 53.6 °F 77% 30.13 in 10.0 mi WNW 9.2 mph - N/A   Overcast
6:35 AM 60.8 °F 55.4 °F 82% 30.12 in 10.0 mi WNW 9.2 mph - N/A   Overcast
6:55 AM 60.8 °F 53.6 °F 77% 30.13 in 10.0 mi WNW 8.1 mph - N/A   Scattered Clouds
7:15 AM 60.8 °F 55.4 °F 82% 30.13 in 10.0 mi WNW 9.2 mph - N/A   Mostly Cloudy
7:35 AM 60.8 °F 55.4 °F 82% 30.14 in 10.0 mi NW 8.1 mph - N/A   Overcast
7:55 AM 60.8 °F 55.4 °F 82% 30.14 in 10.0 mi NW 8.1 mph - N/A   Overcast
8:15 AM 60.8 °F 55.4 °F 82% 30.14 in 10.0 mi NW 9.2 mph - N/A   Overcast
8:35 AM 60.8 °F 55.4 °F 82% 30.14 in 10.0 mi NW 5.8 mph - N/A   Overcast
8:55 AM 60.8 °F 55.4 °F 82% 30.14 in 10.0 mi NW 10.4 mph - N/A   Overcast
9:15 AM 62.6 °F 57.2 °F 82% 30.14 in 10.0 mi WNW 10.4 mph - N/A   Overcast
9:35 AM 62.6 °F 57.2 °F 82% 30.15 in 10.0 mi WNW 9.2 mph - N/A   Overcast
9:55 AM 62.6 °F 57.2 °F 82% 30.15 in 10.0 mi WNW 10.4 mph - N/A   Overcast
10:15 AM 62.6 °F 57.2 °F 82% 30.14 in 10.0 mi West 8.1 mph - N/A   Overcast
10:35 AM 64.4 °F 59.0 °F 83% 30.15 in 10.0 mi West 10.4 mph - N/A   Overcast
10:55 AM 66.2 °F 60.8 °F 83% 30.15 in 10.0 mi West 8.1 mph - N/A   Scattered Clouds
11:15 AM 66.2 °F 60.8 °F 83% 30.15 in 10.0 mi WNW 8.1 mph - N/A   Clear
11:35 AM 66.2 °F 60.8 °F 83% 30.15 in 10.0 mi WNW 3.5 mph - N/A   Clear
11:55 AM 68.0 °F 62.6 °F 83% 30.15 in 10.0 mi WNW 6.9 mph - N/A   Clear
12:15 PM 69.8 °F 62.6 °F 78% 30.15 in 10.0 mi WNW 6.9 mph - N/A   Clear
12:35 PM 69.8 °F 62.6 °F 78% 30.15 in 10.0 mi West 8.1 mph - N/A   Clear
12:55 PM 71.6 °F 62.6 °F 73% 30.15 in 10.0 mi WNW 4.6 mph - N/A   Clear
1:35 PM 71.6 °F 62.6 °F 73% 30.15 in 10.0 mi WNW 8.1 mph - N/A   Mostly Cloudy
1:55 PM 71.6 °F 62.6 °F 73% 30.15 in 10.0 mi West 8.1 mph - N/A   Scattered Clouds
2:15 PM 71.6 °F 62.6 °F 73% 30.15 in 10.0 mi West 8.1 mph - N/A   Scattered Clouds
2:35 PM 71.6 °F 62.6 °F 73% 30.15 in 10.0 mi West 9.2 mph - N/A   Scattered Clouds
2:55 PM 71.6 °F 62.6 °F 73% 30.14 in 10.0 mi West 6.9 mph - N/A   Scattered Clouds
3:15 PM 71.6 °F 62.6 °F 73% 30.14 in 10.0 mi West 9.2 mph - N/A   Clear
3:35 PM 73.4 °F 60.8 °F 65% 30.14 in 10.0 mi West 8.1 mph - N/A   Clear
3:55 PM 73.4 °F 60.8 °F 65% 30.13 in 10.0 mi WNW 9.2 mph - N/A   Clear
4:15 PM 73.4 °F 59.0 °F 61% 30.13 in 10.0 mi WNW 9.2 mph 16.1 mph N/A   Clear
4:35 PM 73.4 °F 59.0 °F 61% 30.13 in 10.0 mi WNW 10.4 mph 16.1 mph N/A   Clear
4:55 PM 73.4 °F 59.0 °F 61% 30.13 in 10.0 mi NW 10.4 mph - N/A   Clear
5:15 PM 73.4 °F 60.8 °F 65% 30.13 in 10.0 mi WNW 8.1 mph - N/A   Scattered Clouds
5:35 PM 73.4 °F 60.8 °F 65% 30.13 in 10.0 mi WNW 9.2 mph - N/A   Scattered Clouds
5:55 PM 73.4 °F 60.8 °F 65% 30.14 in 10.0 mi NW 5.8 mph - N/A   Scattered Clouds
6:15 PM 71.6 °F 60.8 °F 69% 30.14 in 10.0 mi NW 9.2 mph - N/A   Clear
6:35 PM 69.8 °F 59.0 °F 68% 30.14 in 10.0 mi NNW 5.8 mph - N/A   Clear
6:55 PM 69.8 °F 59.0 °F 68% 30.14 in 10.0 mi NW 8.1 mph - N/A   Clear
7:15 PM 69.8 °F 59.0 °F 68% 30.15 in 10.0 mi NW 8.1 mph - N/A   Clear
7:35 PM 68.0 °F 59.0 °F 73% 30.15 in 10.0 mi NW 8.1 mph - N/A   Clear
7:55 PM 68.0 °F 60.8 °F 78% 30.16 in 10.0 mi NW 8.1 mph - N/A   Clear
8:15 PM 66.2 °F 60.8 °F 83% 30.16 in 10.0 mi NW 8.1 mph - N/A   Clear
8:35 PM 66.2 °F 60.8 °F 83% 30.17 in 10.0 mi NW 6.9 mph - N/A   Clear
8:55 PM 66.2 °F 60.8 °F 83% 30.18 in 10.0 mi North 4.6 mph - N/A   Scattered Clouds
9:15 PM 66.2 °F 60.8 °F 83% 30.19 in 10.0 mi NNW 4.6 mph - N/A   Scattered Clouds
9:35 PM 66.2 °F 60.8 °F 83% 30.20 in 10.0 mi NNW 8.1 mph - N/A   Scattered Clouds
9:55 PM 64.4 °F 60.8 °F 88% 30.20 in 10.0 mi NNW 6.9 mph - N/A   Scattered Clouds
10:15 PM 64.4 °F 60.8 °F 88% 30.20 in 10.0 mi NW 5.8 mph - N/A   Clear
10:35 PM 64.4 °F 60.8 °F 88% 30.20 in 10.0 mi NNW 6.9 mph - N/A   Scattered Clouds
10:55 PM 64.4 °F 60.8 °F 88% 30.20 in 10.0 mi NNW 5.8 mph - N/A   Clear
11:15 PM 64.4 °F 60.8 °F 88% 30.21 in 10.0 mi NNE 3.5 mph - N/A   Clear
11:35 PM 66.2 °F 60.8 °F 83% 30.21 in 10.0 mi ENE 4.6 mph - N/A   Mostly Cloudy
11:55 PM 64.4 °F 60.8 °F 88% 30.22 in 10.0 mi East 3.5 mph - N/A   Mostly Cloudy